{"data":{"norad_id":54741,"epoch":"2026-05-25T03:18:38.663136Z","epoch_age_seconds":66343,"freshness":"FRESH","line1":"1 54741U 22170A   26145.13794749 -.00000164  00000+0  00000+0 0  9995","line2":"2 54741   0.0398 114.6167 0002068 309.1510 135.5164  1.00271756 12663","mean_motion":1.00271756,"eccentricity":0.0002068,"inclination_deg":0.0398,"raan_deg":114.6167,"arg_perigee_deg":309.151,"mean_anomaly_deg":135.5164,"bstar":0,"rev_number":1266,"period_min":1436.0973193688,"perigee_km":35777.883422695,"apogee_km":35795.322759196,"semimajor_km":42164.740090945,"source":"CELESTRAK","updated_at":"2026-05-25T13:38:14.339565Z"}}